Regional Weather Roundup
Issued by NWS

Home | Current Version | Previous Version | Text Only | Print | Product List | Glossary On
Versions: 1 2 3 4 5 6 7 8 9 10 11 12 13 14 15 16 17 18 19 20 21 22 23 24 25 26 27 28
503
ASUS44 KBMX 221810
RWRAL

ALABAMA REGIONAL WEATHER ROUNDUP
NATIONAL WEATHER SERVICE BIRMINGHAM AL
100 PM CDT FRI MAY 22 2015

NOTE: "FAIR" INDICATES FEW OR NO CLOUDS BELOW 12,000 FEET
WITH NO SIGNIFICANT WEATHER AND/OR OBSTRUCTIONS TO VISIBILITY.

THE REMARK "TC" DENOTES TEMPERATURE IN DEGREES CELSIUS.

ALZ001>011-014-016>018-020-221900-
NORTH ALABAMA

CITY           SKY/WX    TMP DP  RH WIND       PRES   REMARKS
MUSCLE SHOALS  SUNNY     69  46  43 N7        30.27F
6HR MIN TEMP:  52; 6HR MAX TEMP:  70;

HUNTSVILLE     MOSUNNY   72  47  40 VRB3      30.25F
6HR MIN TEMP:  50; 6HR MAX TEMP:  73;

DECATUR        NOT AVBL
HALEYVILLE     FAIR      69  50  50 CALM      30.28S
6HR MIN TEMP:  47; 6HR MAX TEMP:  69; 6HR PCP:  0.02;

GADSDEN        SUNNY    N/A N/A N/A NE5       30.22F
$$

ALZ012-013-022-023-030>036-040>044-221900-
WEST CENTRAL ALABAMA

CITY           SKY/WX    TMP DP  RH WIND       PRES   REMARKS
TUSCALOOSA     SUNNY     72  47  40 VRB6      30.23F
6HR MIN TEMP:  52; 6HR MAX TEMP:  73;

$$

ALZ015-024>027-033>036-040>044-221900-
CENTRAL ALABAMA

CITY           SKY/WX    TMP DP  RH WIND       PRES   REMARKS
BIRMINGHAM     MOSUNNY   73  48  41 N8        30.25R
6HR MIN TEMP:  50; 6HR MAX TEMP:  73;

MONTGOMERY     SUNNY     74  49  41 N8        30.20F
6HR MIN TEMP:  57; 6HR MAX TEMP:  74;

SHELBY CO ARPT SUNNY     72  48  42 VRB3      30.22F
6HR MIN TEMP:  53; 6HR MAX TEMP:  73;

MAXWELL AFB    MOSUNNY   72  51  47 VRB6      30.19F
6HR MIN TEMP:  56; 6HR MAX TEMP:  72;

GREENVILLE     FAIR      75  51  43 CALM      30.19S
6HR MIN TEMP:  56; 6HR MAX TEMP:  75;

$$

ALZ019-021-028-029-037-038-045>048-221900-
EAST CENTRAL ALABAMA

CITY           SKY/WX    TMP DP  RH WIND       PRES   REMARKS
ANNISTON       SUNNY     71  50  47 CALM      30.22F
6HR MIN TEMP:  53; 6HR MAX TEMP:  73;

ALEXANDER CITY SUNNY     72  47  41 CALM      30.21F
6HR MIN TEMP:  52; 6HR MAX TEMP:  72;

AUBURN         SUNNY     72  48  43 N5        30.22S
6HR MIN TEMP:  52; 6HR MAX TEMP:  72;

$$

ALZ051>064-221900-
SOUTHWEST ALABAMA

CITY           SKY/WX    TMP DP  RH WIND       PRES   REMARKS
MOBILE         PTSUNNY   77  59  53 VRB7      30.18F
6HR MIN TEMP:  57; 6HR MAX TEMP:  77;

BROOKLEY FIELD PTSUNNY   77  58  51 N8        30.19S
6HR MIN TEMP:  61; 6HR MAX TEMP:  77;

EVERGREEN      SUNNY     75  53  46 VRB7      30.20S
6HR MIN TEMP:  58; 6HR MAX TEMP:  75;

$$

ALZ049-050-065>069-221900-
SOUTHEAST ALABAMA

CITY           SKY/WX    TMP DP  RH WIND       PRES   REMARKS
DOTHAN         SUNNY     75  52  44 MISG      30.21S
6HR MIN TEMP:  60; 6HR MAX TEMP:  76;

OZARK          PTSUNNY   75  52  43 VRB5      30.17F
6HR MIN TEMP:  61; 6HR MAX TEMP:  75;

TROY           SUNNY     75  53  46 VRB5      30.19F
6HR MIN TEMP:  57; 6HR MAX TEMP:  75;

EUFAULA        FAIR      77  54  44 N6        30.17F
6HR MIN TEMP:  59; 6HR MAX TEMP:  77;

$$



USA.gov is the U.S. government's official web portal to all federal, state and local government web resources and services.